Date,TemperatureHighF,TemperatureAvgF,TemperatureLowF,DewpointHighF,DewpointAvgF,DewpointLowF,HumidityHigh,HumidityAvg,HumidityLow,PressureMaxIn,PressureMinIn,WindSpeedMaxMPH,WindSpeedAvgMPH,GustSpeedMaxMPH,PrecipitationSumIn
2013-1-1,47,42,37,46,38,35,98,87,77,30.04,29.49,21,8,21,0.01
2013-1-2,50,44,39,50,43,37,99,94,87,30.33,30.04,14,7,14,0.01
2013-1-3,51,50,48,50,48,47,100,96,93,30.60,30.33,20,9,20,0.00
2013-1-4,49,48,46,48,46,44,97,92,87,30.64,30.59,17,8,17,0.00
2013-1-5,50,47,42,48,46,42,99,96,90,30.59,30.50,15,5,15,0.01
2013-1-6,46,44,42,46,44,41,100,99,98,30.51,30.38,12,4,12,0.00
2013-1-7,47,45,43,46,45,43,99,98,95,30.39,30.23,12,6,12,0.00
2013-1-8,50,49,46,49,47,45,98,95,91,30.25,30.17,16,7,16,0.04
2013-1-9,48,42,31,48,40,30,99,94,79,30.18,30.07,12,3,12,0.04
2013-1-10,36,34,30,36,33,29,99,98,96,30.07,29.93,10,2,10,0.00
2013-1-11,43,36,33,40,35,32,98,96,89,30.08,29.98,8,1,8,0.00
2013-1-12,40,37,33,36,33,28,99,87,65,29.97,29.84,23,8,23,0.08
2013-1-13,36,33,31,32,30,27,90,87,82,30.15,29.96,15,5,15,0.00
2013-1-14,36,33,30,36,31,29,99,95,88,30.10,29.63,14,4,18,0.13
2013-1-15,36,32,26,33,30,25,96,92,84,29.87,29.63,29,5,29,0.02
2013-1-16,29,27,25,29,26,24,100,98,96,30.03,29.83,7,2,7,0.01
2013-1-17,33,29,24,31,28,23,97,94,86,30.08,29.88,6,1,6,0.00
2013-1-18,34,30,28,30,28,26,97,92,82,29.88,29.43,18,8,18,0.00
2013-1-19,32,31,29,31,29,26,97,93,86,29.50,29.40,17,7,20,0.00
2013-1-20,31,30,28,30,28,25,97,94,85,29.48,29.28,18,5,18,0.00
2013-1-21,32,30,25,31,29,24,98,96,93,29.50,29.26,7,2,7,0.00
2013-1-22,35,29,20,34,28,19,100,96,88,29.69,29.50,20,6,20,0.00
2013-1-23,34,33,32,33,31,30,97,93,90,29.81,29.69,17,8,17,0.01
2013-1-24,34,33,32,32,30,28,95,89,81,30.14,29.81,14,3,14,0.00
2013-1-25,37,33,29,36,30,27,97,90,83,30.12,29.55,21,6,21,0.09
2013-1-26,45,40,35,43,38,34,99,93,83,29.83,29.52,23,9,23,0.38
2013-1-27,50,45,38,49,40,34,98,84,59,29.62,29.25,33,15,33,0.24
2013-1-28,50,42,34,48,40,33,98,92,84,29.80,29.49,38,12,38,0.17
2013-1-29,56,52,48,54,50,45,99,95,84,29.64,29.52,27,14,27,0.07
2013-1-30,54,48,43,53,44,38,97,84,66,30.02,29.49,39,16,39,0.20
2013-1-31,49,47,42,45,41,39,92,81,67,30.03,29.77,32,14,32,0.07
2013-2-1,44,41,39,42,39,37,97,92,80,29.83,29.45,14,5,14,0.22
2013-2-2,40,37,31,38,31,26,93,79,65,30.24,29.61,23,9,23,0.00
2013-2-3,48,40,30,46,37,26,96,91,82,30.25,29.90,20,7,20,0.00
2013-2-4,49,47,42,47,40,34,94,78,58,29.94,29.69,30,15,30,0.01
2013-2-5,42,39,35,39,33,28,93,79,58,29.69,29.33,28,15,28,0.17
2013-2-6,41,39,35,39,34,28,94,83,70,30.06,29.36,25,12,25,0.06
2013-2-7,40,36,33,36,32,27,95,83,75,30.10,29.99,17,7,17,0.02
2013-2-8,40,37,32,37,33,31,95,88,76,30.15,30.02,16,6,16,0.00
2013-2-9,37,36,34,36,34,32,97,95,86,30.15,29.85,8,3,8,0.04
2013-2-10,40,37,32,40,36,32,99,98,97,29.85,29.26,22,7,22,0.63
2013-2-11,33,33,32,33,32,32,99,98,97,29.72,29.28,14,6,14,0.13
2013-2-12,34,33,32,31,30,29,92,90,88,30.14,29.92,10,3,10,0.04
2013-2-13,38,33,31,38,30,27,98,90,74,30.19,29.97,15,6,15,0.20
2013-2-14,50,45,38,46,42,37,99,89,71,29.97,29.72,21,8,21,0.40
2013-2-15,49,42,36,40,38,35,96,86,66,30.20,29.97,14,3,14,0.00
2013-2-16,46,39,36,41,37,35,97,92,79,30.24,30.19,6,1,6,0.00
2013-2-17,50,38,31,41,34,30,98,87,52,30.20,30.09,12,3,20,0.00
2013-2-18,46,38,30,38,35,29,98,89,69,30.14,30.09,12,4,12,0.00
2013-2-19,51,37,27,39,33,26,99,86,49,30.13,30.05,7,1,7,0.00
2013-2-20,40,35,32,37,32,27,99,86,71,30.26,30.10,21,9,21,0.01
2013-2-21,34,33,32,28,24,21,77,70,64,30.26,30.17,20,11,20,0.00
2013-2-22,35,32,31,27,24,21,82,72,64,30.17,30.11,20,10,20,0.00
2013-2-23,35,32,30,30,27,25,93,82,71,30.21,30.09,16,7,16,0.01
2013-2-24,35,33,31,30,28,26,92,83,74,30.29,30.20,15,8,21,0.00
2013-2-25,38,36,33,36,34,28,94,91,81,30.39,30.26,30,10,30,0.00
2013-2-26,39,37,36,38,36,34,98,96,93,30.57,30.39,20,10,20,0.00
2013-2-27,42,37,34,36,34,32,98,91,77,30.57,30.48,15,9,15,0.00
2013-2-28,48,39,34,38,34,32,94,85,62,30.48,30.33,20,10,20,0.00
2013-3-1,43,39,35,41,35,31,100,85,69,30.41,30.35,17,8,17,0.00
2013-3-2,39,35,28,33,31,26,95,84,77,30.40,30.27,14,3,14,0.00
2013-3-3,45,37,27,37,33,26,96,86,69,30.28,30.09,13,4,13,0.00
2013-3-4,50,40,33,37,34,31,95,81,54,30.09,29.74,14,6,14,0.00
2013-3-5,62,44,30,46,38,30,98,82,54,29.73,29.58,14,2,14,0.00
2013-3-6,53,48,41,46,42,38,92,82,71,29.58,29.50,12,4,12,0.01
2013-3-7,48,46,44,48,46,43,99,97,92,29.51,29.36,12,4,12,0.21
2013-3-8,49,48,45,49,47,44,100,99,99,29.54,29.37,7,3,7,0.22
2013-3-9,44,41,36,44,40,34,100,97,91,29.67,29.53,10,4,10,0.05
2013-3-10,37,35,32,35,32,28,95,89,84,29.75,29.66,26,12,26,0.00
2013-3-11,32,30,27,28,23,17,86,75,55,29.77,29.72,34,18,34,0.00
2013-3-12,39,32,26,32,24,18,90,73,51,29.83,29.75,32,15,32,0.00
2013-3-13,44,36,30,31,29,25,92,76,50,29.95,29.79,20,7,20,0.00
2013-3-14,45,34,28,31,28,23,95,79,44,30.02,29.95,15,5,15,0.00
2013-3-21,42,42,42,35,35,35,77,77,77,30.00,30.00,1,1,16,0.00
2013-3-23,33,32,32,32,32,31,98,97,96,29.88,29.79,22,9,22,0.17
2013-3-24,32,30,29,28,27,24,94,86,72,29.95,29.89,15,2,15,0.00
2013-3-25,33,32,31,27,26,24,83,79,76,29.98,29.93,26,13,26,0.00
2013-3-26,33,32,31,27,26,24,83,76,71,29.95,29.90,21,10,21,0.00
2013-3-27,37,34,31,27,26,24,82,71,64,29.89,29.85,19,7,19,0.01
2013-3-28,38,34,30,30,27,25,92,77,61,29.95,29.85,20,8,20,0.00
2013-3-29,41,35,28,28,25,23,85,69,51,29.92,29.78,20,8,20,0.00
2013-3-30,41,35,31,31,28,26,85,76,59,29.97,29.78,22,8,22,0.00
2013-3-31,41,35,27,30,26,23,92,72,50,29.98,29.90,17,6,17,0.00
2013-4-1,42,35,31,30,27,24,92,74,54,29.90,29.83,26,11,26,0.00
2013-4-2,46,37,30,31,25,18,89,64,36,30.07,29.89,26,12,26,0.00
2013-4-3,42,36,32,31,27,23,91,70,50,30.07,30.00,30,14,30,0.00
2013-4-4,38,35,32,32,28,23,92,78,56,30.00,29.92,25,14,25,0.00
2013-4-5,45,38,33,32,28,22,84,68,40,30.12,29.91,29,15,29,0.00
2013-4-6,49,40,31,32,29,25,91,67,41,30.27,30.12,23,6,23,0.00
2013-4-7,51,39,26,33,27,22,92,64,33,30.27,29.88,17,4,17,0.00
2013-4-8,50,42,37,34,31,26,84,66,42,29.87,29.55,20,9,20,0.00
2013-4-9,48,42,36,41,38,33,95,85,69,29.55,29.38,23,7,23,0.05
2013-4-10,53,43,35,42,38,34,96,85,61,29.71,29.43,20,6,20,0.18
2013-4-11,54,45,41,48,43,40,97,92,76,29.49,29.36,22,7,22,0.17
2013-4-12,53,47,43,48,44,41,98,91,77,29.74,29.28,20,7,20,0.23
2013-4-13,52,46,36,51,45,35,98,95,80,29.89,29.73,26,9,26,0.17
2013-4-14,65,57,52,52,50,47,98,79,58,29.93,29.86,31,16,31,0.01
2013-4-15,59,53,48,49,48,45,92,81,69,30.05,29.91,24,13,24,0.00
2013-4-16,61,54,48,48,46,42,94,76,51,30.07,29.87,26,13,26,0.00
2013-4-17,62,54,46,52,49,44,98,83,66,30.07,29.75,40,14,40,0.01
2013-4-18,56,50,45,45,40,32,82,70,46,30.06,29.76,34,19,34,0.00
2013-4-19,56,48,41,42,39,35,87,73,49,30.49,30.06,20,8,20,0.00
2013-4-20,57,45,32,38,32,26,97,66,34,30.54,30.36,13,3,13,0.00
2013-4-21,57,45,30,41,34,28,95,70,39,30.36,30.02,20,6,20,0.00
2013-4-22,56,49,40,48,43,38,96,82,57,30.02,29.93,20,8,20,0.00
2013-4-23,69,56,49,51,48,46,97,77,52,30.20,29.97,17,7,17,0.00
2013-4-24,67,55,44,55,50,43,96,83,66,30.25,30.17,20,6,20,0.02
2013-4-25,70,58,49,56,51,48,98,80,50,30.24,30.02,24,7,24,0.03
2013-4-26,55,47,42,47,38,28,96,73,42,30.03,29.90,20,7,20,0.18
2013-4-27,50,42,37,41,36,30,92,80,49,30.11,29.89,25,8,25,0.04
2013-4-28,53,43,30,41,34,29,97,73,43,30.11,29.89,24,8,24,0.01
2013-4-29,57,49,43,43,37,33,92,66,41,30.17,29.88,23,9,23,0.01
2013-4-30,56,48,38,41,37,34,91,69,45,30.31,30.17,18,6,18,0.00
2013-5-1,59,47,36,41,33,25,96,64,29,30.31,30.17,20,5,20,0.00
2013-5-2,62,51,37,36,30,19,82,49,20,30.22,30.15,17,4,17,0.00
2013-5-3,64,51,36,45,39,33,90,65,40,30.18,30.04,21,7,21,0.00
2013-5-4,60,52,43,49,42,37,91,72,44,30.12,29.97,32,11,32,0.00
2013-5-5,65,55,42,51,47,39,92,76,58,30.19,30.12,13,4,13,0.00
2013-5-6,72,59,46,51,47,43,94,68,41,30.16,30.03,12,3,12,0.00
2013-5-7,74,58,42,49,45,41,94,64,36,30.07,29.85,16,4,16,0.00
2013-5-8,61,55,46,54,50,42,96,84,65,29.85,29.67,24,9,24,0.12
2013-5-9,56,49,42,47,43,40,94,82,57,29.82,29.64,36,16,36,0.10
2013-5-10,60,52,46,50,47,43,95,83,60,29.91,29.66,28,14,28,0.09
2013-5-11,55,47,42,49,43,39,97,86,64,29.91,29.78,31,10,31,0.21
2013-5-12,56,48,41,50,44,39,97,85,57,30.00,29.89,22,11,22,0.07
2013-5-13,57,51,43,50,42,35,97,74,45,29.90,29.79,32,14,32,0.02
2013-5-14,51,46,42,47,43,40,97,89,68,29.80,29.19,28,9,28,0.42
2013-5-15,56,46,41,46,41,39,97,84,57,29.54,29.11,32,12,32,0.02
2013-5-16,62,48,34,47,40,32,100,78,37,29.56,29.47,13,3,13,0.10
2013-5-17,52,47,39,46,43,38,98,88,74,29.81,29.55,14,3,14,0.00
2013-5-18,59,52,46,48,45,42,90,78,62,29.80,29.70,13,4,13,0.00
2013-5-19,64,54,42,51,47,41,97,79,59,29.90,29.77,14,3,14,0.00
2013-5-20,62,56,50,58,53,48,96,89,82,29.91,29.83,18,7,18,0.01
2013-5-21,59,55,52,56,52,48,95,88,76,30.07,29.90,17,8,17,0.00
2013-5-22,57,51,45,49,44,36,96,79,54,30.09,30.01,20,6,20,0.00
2013-5-23,50,45,41,42,38,33,90,75,56,30.01,29.88,23,9,23,0.04
2013-5-24,48,43,40,46,40,37,95,90,82,30.03,29.61,26,10,26,0.29
2013-5-25,58,49,41,43,40,38,100,76,50,30.17,30.04,15,6,15,0.00
2013-5-26,66,54,41,43,40,35,89,60,37,30.13,29.95,16,6,16,0.00
2013-5-27,63,52,40,45,39,28,95,65,29,29.95,29.62,28,9,28,0.00
2013-5-28,53,49,48,52,48,42,100,94,78,29.62,29.45,16,2,16,0.58
2013-5-29,54,50,45,52,49,45,100,95,89,29.77,29.55,17,4,17,0.03
2013-5-30,58,53,51,53,51,50,97,93,82,30.00,29.74,17,7,17,0.11
2013-5-31,70,59,51,57,52,48,94,79,55,30.12,29.99,18,7,18,0.00
2013-6-1,63,56,48,50,45,41,87,69,48,30.30,30.12,20,9,20,0.00
2013-6-2,63,55,46,46,44,41,91,67,47,30.43,30.30,15,5,15,0.00
2013-6-3,64,54,42,48,44,40,96,69,48,30.48,30.40,17,5,17,0.00
2013-6-4,67,55,42,50,45,39,91,71,50,30.42,30.22,22,8,22,0.00
2013-6-5,65,54,45,54,48,43,93,80,63,30.22,30.08,16,8,16,0.00
2013-6-6,69,56,45,55,48,44,95,77,55,30.19,30.12,18,8,18,0.00
2013-6-7,69,57,47,54,48,42,85,70,56,30.23,30.16,20,8,20,0.00
2013-6-8,61,54,46,49,46,44,92,78,61,30.22,30.07,21,11,21,0.00
2013-6-9,60,52,47,49,46,44,89,79,63,30.08,29.96,18,8,18,0.00
2013-6-10,60,52,45,48,45,42,91,76,61,30.00,29.94,12,2,12,0.00
2013-6-11,63,55,44,58,51,42,95,88,77,29.96,29.87,20,6,20,0.00
2013-6-12,61,58,56,59,56,52,97,91,79,29.88,29.78,24,13,24,0.08
2013-6-13,61,56,51,55,51,47,96,85,65,30.03,29.75,30,15,30,0.05
2013-6-14,66,55,45,52,48,40,96,80,42,30.05,29.78,24,8,24,0.00
2013-6-15,59,55,49,54,49,44,97,81,60,29.86,29.67,26,12,26,0.60
2013-6-16,64,56,50,53,50,48,92,80,65,29.96,29.86,17,6,17,0.01
2013-6-17,66,59,52,54,51,49,93,77,61,29.96,29.91,20,7,20,0.00
2013-6-18,68,61,53,62,56,50,95,85,79,29.97,29.90,17,3,17,0.00
2013-6-19,76,66,58,63,60,56,98,81,53,29.97,29.91,12,2,12,0.00
2013-6-20,68,64,58,62,59,55,91,85,78,29.95,29.77,14,4,14,0.00
2013-6-21,71,61,56,61,57,54,98,87,65,29.86,29.76,18,6,18,0.00
2013-6-22,60,56,52,57,53,50,100,89,79,29.84,29.63,27,14,27,0.22
2013-6-23,60,56,51,54,52,48,97,86,73,30.02,29.64,26,12,26,0.12
2013-6-24,62,55,48,48,46,44,91,73,55,30.29,30.02,21,6,21,0.00
2013-6-25,67,58,48,50,47,44,90,69,46,30.41,30.29,12,2,12,0.00
2013-6-26,69,59,46,54,49,44,94,73,52,30.43,30.35,13,3,13,0.00
2013-6-27,65,57,50,53,50,46,96,79,54,30.38,30.17,13,5,13,0.03
2013-6-28,68,60,53,63,58,52,98,92,79,30.17,30.04,18,6,18,0.05
2013-6-29,70,62,53,58,51,46,92,69,46,30.24,30.07,22,7,22,0.00
2013-6-30,76,65,56,61,56,51,97,76,50,30.24,30.06,21,9,21,0.00
2013-7-1,66,60,54,53,50,48,90,72,54,30.07,29.98,20,7,20,0.00
2013-7-2,62,56,50,55,52,48,93,85,73,29.98,29.65,21,6,21,0.02
2013-7-3,67,61,57,58,56,53,98,86,67,30.00,29.60,21,7,21,0.04
2013-7-4,72,62,53,63,56,51,97,82,57,30.25,30.00,21,8,21,0.00
2013-7-5,78,66,52,60,55,50,96,71,45,30.41,30.25,10,2,10,0.00
2013-7-6,82,67,51,61,56,50,96,70,41,30.41,30.34,12,2,12,0.00
2013-7-7,81,71,58,64,59,56,96,69,45,30.50,30.41,18,4,18,0.00
2013-7-8,77,67,58,63,58,55,93,76,56,30.52,30.43,17,7,17,0.00
2013-7-9,77,65,50,58,48,42,94,59,30,30.44,30.27,15,6,15,0.00
2013-7-10,71,62,52,60,52,44,86,71,59,30.29,30.25,20,8,20,0.00
2013-7-11,70,59,50,53,49,46,89,70,51,30.30,30.23,17,7,17,0.00
2013-7-12,77,61,50,60,54,48,94,79,54,30.30,30.21,12,2,12,0.00
2013-7-13,86,72,56,67,61,54,94,71,42,30.24,30.20,13,3,13,0.00
2013-7-14,83,72,60,65,60,55,96,70,41,30.24,30.17,18,3,18,0.00
2013-7-15,84,71,59,58,50,40,79,52,24,30.23,30.18,9,2,9,0.00
2013-7-16,85,72,59,62,57,53,90,62,36,30.21,30.16,12,2,12,0.00
2013-7-17,86,73,59,65,61,56,92,68,44,30.26,30.19,12,2,12,0.00
2013-7-18,81,71,60,61,58,55,86,65,45,30.31,30.26,20,5,20,0.00
2013-7-19,82,70,58,61,56,50,81,63,43,30.30,30.19,20,7,20,0.00
2013-7-20,74,66,59,61,59,56,94,79,64,30.25,30.15,21,8,21,0.00
2013-7-21,78,67,60,63,59,54,89,76,56,30.17,30.02,17,5,17,0.00
2013-7-22,90,74,60,67,62,58,94,69,38,30.05,29.92,18,5,18,0.00
2013-7-23,84,72,64,70,64,60,96,79,58,29.95,29.87,17,4,17,0.11
2013-7-24,78,67,58,61,58,55,93,75,50,29.96,29.91,18,6,18,0.00
2013-7-25,78,67,61,66,61,57,97,82,52,29.93,29.86,18,6,18,0.25
2013-7-26,79,67,54,60,56,52,97,70,44,29.91,29.84,12,2,12,0.00
2013-7-27,80,66,53,64,56,51,97,75,39,29.85,29.57,17,3,17,0.42
2013-7-28,74,65,57,60,58,54,98,80,54,29.76,29.58,28,12,28,0.03
2013-7-29,72,63,58,63,59,54,95,87,61,29.96,29.76,25,9,25,0.36
2013-7-30,70,62,57,65,60,56,97,93,79,29.96,29.84,15,5,15,0.31
2013-7-31,74,65,60,65,61,57,96,88,73,29.98,29.93,22,8,22,0.03
2013-8-1,92,76,62,69,64,61,95,69,37,29.93,29.67,23,8,23,0.00
2013-8-2,78,68,60,64,59,55,93,76,47,29.81,29.72,24,9,24,0.00
2013-8-3,74,64,59,59,57,53,93,78,54,30.08,29.78,22,9,22,0.03
2013-8-4,72,65,58,59,56,54,93,76,54,30.10,30.02,22,10,22,0.00
2013-8-5,72,63,58,63,59,56,96,86,65,30.02,29.76,24,6,24,0.58
2013-8-6,71,61,50,56,52,49,97,76,50,30.03,29.90,12,2,12,0.00
2013-8-7,71,62,54,56,52,48,95,72,48,30.04,29.91,16,4,16,0.00
2013-8-8,76,63,48,56,52,46,95,69,42,30.11,30.03,16,4,16,0.00
2013-8-9,72,64,60,62,55,48,96,73,47,30.18,30.01,17,6,17,0.03
2013-8-10,69,62,55,53,50,47,82,66,48,30.19,30.12,16,4,16,0.00
2013-8-11,70,63,56,58,52,48,93,70,46,30.12,30.00,20,5,20,0.00
2013-8-12,68,60,53,54,50,44,92,71,46,30.09,29.99,18,5,18,0.00
2013-8-13,66,58,50,56,50,46,94,79,50,30.20,30.09,23,5,23,0.03
2013-8-14,70,59,47,59,54,46,97,85,59,30.22,30.14,16,5,16,0.04
2013-8-15,72,64,60,65,62,59,97,92,75,30.13,29.99,23,7,23,0.18
2013-8-16,75,65,61,65,61,59,96,88,58,30.00,29.92,16,7,16,0.04
2013-8-17,66,60,54,60,57,53,99,88,71,29.98,29.72,27,10,27,0.02
2013-8-18,72,64,58,61,56,52,95,77,55,29.90,29.70,20,9,20,0.00
2013-8-19,71,61,52,54,51,48,92,71,47,30.31,29.90,15,4,15,0.00
2013-8-20,76,63,51,55,51,48,93,69,42,30.35,30.28,12,3,12,0.00
2013-8-21,78,64,49,59,53,48,94,70,43,30.30,30.13,13,3,13,0.02
2013-8-22,75,65,60,67,62,59,97,89,69,30.15,30.05,12,2,12,0.24
2013-8-23,79,67,58,63,60,56,97,79,50,30.05,29.85,16,4,16,0.00
2013-8-24,66,62,58,62,59,53,94,90,82,29.87,29.80,17,5,17,0.20
2013-8-25,73,63,54,64,58,50,97,84,65,30.05,29.83,17,7,17,0.09
2013-8-26,76,65,55,62,57,51,94,78,47,30.09,30.03,14,5,14,0.00
2013-8-27,72,61,52,57,52,48,97,75,44,30.12,30.05,12,3,12,0.00
2013-8-28,75,62,50,58,53,47,96,74,46,30.22,30.12,8,1,8,0.00
2013-8-29,74,63,54,58,56,52,95,78,54,30.19,30.12,17,4,17,0.00
2013-8-30,73,64,56,60,58,54,95,82,61,30.14,30.04,20,6,20,0.00
2013-8-31,67,60,52,60,48,42,93,66,43,30.40,30.11,20,6,20,0.00
2013-9-1,70,58,49,53,48,43,87,70,44,30.44,30.32,18,6,18,0.00
2013-9-2,77,63,50,60,55,48,94,76,55,30.35,30.28,16,4,16,0.00
2013-9-3,77,65,54,62,58,52,95,80,56,30.35,30.26,12,1,12,0.00
2013-9-4,84,66,51,64,56,50,97,74,38,30.26,30.00,16,3,16,0.00
2013-9-5,83,67,53,63,56,50,100,71,40,30.00,29.76,12,3,12,0.00
2013-9-6,62,57,52,56,52,48,93,85,67,29.83,29.70,13,3,13,0.02
2013-9-7,63,54,46,53,47,44,96,80,54,30.04,29.81,18,4,18,0.01
2013-9-8,60,51,41,51,46,40,100,87,59,30.06,30.02,21,4,21,0.07
2013-9-9,56,50,44,54,49,43,97,96,91,30.05,29.96,10,2,10,0.17
2013-9-10,60,54,47,52,48,45,95,83,65,30.16,30.05,20,6,20,0.01
2013-9-11,61,55,52,54,51,48,96,84,69,30.17,30.10,22,6,22,0.10
2013-9-12,54,54,54,53,53,53,97,96,96,30.11,30.08,4,0,4,0.01
2013-9-18,59,54,49,51,47,44,87,76,63,29.86,29.63,20,6,20,0.01
2013-9-19,60,52,43,59,49,41,97,91,81,29.89,29.72,22,6,22,0.07
2013-9-20,64,55,49,53,50,47,94,83,60,30.17,29.87,13,3,13,0.00
2013-9-21,64,56,46,61,54,45,96,92,87,30.30,30.17,14,3,14,0.00
2013-9-22,69,62,54,62,59,53,97,91,79,30.36,30.29,10,2,10,0.00
2013-9-23,63,58,53,60,57,52,97,94,87,30.33,30.11,8,1,8,0.00
2013-9-24,70,57,47,62,54,46,98,91,70,30.11,29.92,8,1,8,0.00
2013-9-25,71,60,53,62,57,52,98,91,70,29.92,29.82,10,1,10,0.01
2013-9-26,64,58,52,57,53,49,93,84,63,30.05,29.90,14,4,14,0.00
2013-9-27,64,54,47,53,50,46,96,85,65,30.05,29.92,18,4,18,0.00
2013-9-28,65,57,51,58,52,47,95,84,65,29.92,29.73,18,7,18,0.00
2013-9-29,65,58,55,56,53,51,90,82,68,29.75,29.69,21,9,21,0.00
2013-9-30,66,58,53,56,53,49,92,83,66,29.78,29.68,15,6,15,0.00
2013-10-1,62,56,50,56,52,49,95,87,77,29.81,29.75,17,6,17,0.00
2013-10-2,70,60,55,62,57,52,97,88,77,29.88,29.77,14,4,14,0.18
2013-10-3,64,60,55,62,58,54,97,94,91,29.86,29.69,16,5,16,0.03
2013-10-4,68,63,59,62,60,57,96,89,75,29.93,29.65,24,8,24,0.03
2013-10-5,65,58,50,58,55,48,97,89,74,30.25,29.93,9,1,9,0.00
2013-10-6,66,53,42,54,48,41,97,85,60,30.30,30.25,12,2,12,0.00
2013-10-7,66,54,46,58,52,44,98,92,76,30.30,30.24,12,3,12,0.00
2013-10-8,65,60,56,60,57,52,97,91,81,30.27,30.22,16,5,16,0.00
2013-10-9,60,54,45,54,49,39,94,84,69,30.23,29.98,22,5,22,0.01
2013-10-10,52,47,43,41,39,37,84,75,63,30.13,30.00,26,13,26,0.00
2013-10-11,55,52,45,52,48,40,93,87,76,30.14,29.97,32,16,32,0.04
2013-10-12,56,52,48,52,48,46,96,88,73,30.12,29.98,26,6,26,0.08
2013-10-13,52,49,47,51,48,45,99,95,92,30.00,29.76,20,6,20,0.42
2013-10-14,50,48,47,49,46,45,99,95,89,29.77,29.69,16,6,16,0.14
2013-10-15,56,49,43,51,46,42,100,92,81,29.95,29.74,12,3,12,0.01
2013-10-16,58,48,39,56,47,38,98,94,83,29.97,29.68,24,6,24,0.19
2013-10-17,62,55,47,56,52,46,96,90,75,30.00,29.79,16,6,16,0.00
2013-10-18,62,56,48,58,54,47,98,93,84,30.01,29.76,15,4,15,0.00
2013-10-19,62,57,54,60,55,52,97,94,86,29.76,29.62,18,6,18,0.04
2013-10-20,62,55,52,57,53,51,97,94,84,29.69,29.61,23,8,23,1.01
2013-10-21,62,61,61,58,58,58,90,89,87,29.65,29.58,25,12,25,0.23
2013-10-22,64,60,55,60,57,53,96,92,85,29.58,29.31,24,10,24,0.20
2013-10-23,61,55,44,56,51,42,96,87,65,29.85,29.23,29,12,29,0.18
2013-10-24,63,50,39,55,47,38,97,90,70,29.98,29.81,14,3,14,0.01
2013-10-25,63,58,54,59,55,53,100,91,81,29.82,29.57,24,11,24,0.13
2013-10-26,60,58,56,56,55,53,93,88,83,29.68,29.46,31,14,31,0.13
2013-10-27,59,54,50,53,51,48,96,88,71,29.46,29.20,34,14,34,0.64
2013-10-28,60,52,45,58,49,42,97,90,81,29.58,28.85,50,15,50,0.73
2013-10-29,54,46,41,46,42,38,97,85,65,30.06,29.58,23,8,23,0.02
2013-10-30,56,47,36,51,44,35,97,88,73,30.17,30.05,21,7,21,0.02
2013-10-31,54,53,52,53,51,49,96,93,88,30.05,29.92,20,8,20,0.07
2013-11-1,55,52,50,54,51,49,97,94,91,29.92,29.54,18,5,18,0.09
2013-11-2,57,51,48,53,47,41,97,87,70,29.56,29.35,40,12,40,0.02
2013-11-3,52,47,44,44,41,39,96,82,68,29.57,29.06,27,11,27,0.46
2013-11-4,50,43,36,43,39,34,97,88,73,29.49,29.02,26,7,26,0.16
2013-11-5,52,44,35,50,42,33,98,90,78,29.51,29.24,28,6,28,0.24
2013-11-6,58,52,47,56,50,42,97,94,85,29.53,29.45,25,9,25,0.19
2013-11-7,56,47,40,55,44,39,96,91,79,29.77,29.51,20,3,20,0.16
2013-11-8,48,41,34,47,40,33,98,96,95,29.76,29.58,17,1,17,0.12
2013-11-10,50,41,33,40,36,32,96,85,67,30.26,29.92,17,3,17,0.02
2013-11-11,54,47,33,54,46,32,100,97,96,30.25,30.12,16,5,16,0.31
2013-11-12,54,49,42,54,47,39,98,92,82,30.50,30.14,17,5,17,0.05
2013-11-13,49,42,33,44,38,32,97,89,76,30.56,30.19,18,4,18,0.01
2013-11-14,48,44,40,44,40,35,94,85,75,30.42,30.11,28,10,28,0.03
2013-11-15,48,40,33,39,35,31,94,82,64,30.53,30.42,14,5,14,0.00
2013-11-16,45,39,31,43,38,29,97,95,90,30.52,30.38,8,1,8,0.00
2013-11-17,48,46,43,47,45,42,97,96,93,30.38,30.01,7,1,7,0.01
2013-11-18,48,45,42,46,44,39,97,95,90,30.01,29.75,18,3,18,0.02
2013-11-19,42,37,29,39,33,27,93,85,69,30.06,29.80,16,6,16,0.00
2013-11-20,43,35,28,41,33,26,100,93,86,30.04,29.40,30,7,30,0.24
2013-11-21,46,41,37,39,37,34,95,87,70,29.93,29.42,30,12,30,0.02
2013-11-22,45,40,37,38,36,34,94,86,71,30.17,29.93,21,10,21,0.00
2013-11-23,44,40,36,39,37,34,94,89,77,30.32,30.16,17,7,17,0.00
2013-11-24,45,42,40,42,39,36,92,88,82,30.57,30.32,14,6,14,0.00
2013-11-25,43,40,38,39,37,36,92,88,83,30.69,30.57,13,5,13,0.00
2013-11-26,44,39,33,40,35,31,92,85,72,30.70,30.57,10,3,10,0.00
2013-11-27,51,46,42,48,44,39,95,92,89,30.57,30.48,9,2,9,0.00
2013-11-28,49,46,45,46,44,44,95,92,88,30.57,30.51,10,2,10,0.00
2013-11-29,49,46,42,44,42,38,95,86,72,30.51,30.17,22,7,22,0.01
2013-11-30,46,41,34,40,37,32,92,84,79,30.46,30.19,20,7,20,0.00
2013-12-1,48,42,31,45,39,30,95,90,83,30.57,30.43,9,2,9,0.00
2013-12-2,48,45,42,43,41,39,94,88,77,30.57,30.45,6,1,6,0.00
2013-12-3,42,41,40,40,37,35,92,85,80,30.45,30.31,8,2,8,0.00
2013-12-4,46,41,33,44,37,31,95,87,70,30.49,30.29,13,4,13,0.00
2013-12-5,50,40,30,45,35,29,100,83,61,30.46,30.01,35,11,35,0.05
2013-12-6,46,42,37,41,36,31,94,80,72,30.38,30.24,20,6,20,0.00
2013-12-7,47,43,40,44,42,38,96,93,88,30.34,30.26,13,5,13,0.00
2013-12-8,51,44,40,47,42,38,100,93,83,30.31,30.23,18,6,18,0.04
2013-12-9,50,42,34,47,41,33,100,95,87,30.41,30.30,13,4,13,0.02
2013-12-10,46,39,33,46,38,32,98,96,92,30.46,30.40,9,1,9,0.01
2013-12-11,40,36,31,40,35,30,98,97,96,30.44,30.30,5,0,5,0.01
2013-12-12,47,41,30,46,40,29,98,98,97,30.30,30.19,12,2,12,0.01
2013-12-13,53,49,43,50,47,41,98,93,82,30.18,30.00,21,6,21,0.02
2013-12-14,51,44,37,48,42,35,95,91,84,30.28,30.03,31,10,31,0.07
2013-12-15,54,50,43,52,49,41,97,95,91,30.15,29.97,27,12,27,0.32
2013-12-16,55,51,42,53,49,41,96,94,89,30.13,29.92,36,11,36,0.31
2013-12-17,42,40,39,41,39,38,100,96,93,30.26,29.98,13,1,13,0.14
2013-12-18,49,45,39,48,44,38,97,95,90,29.98,29.26,36,13,36,0.28
2013-12-19,47,41,36,45,38,35,95,90,76,29.85,29.30,21,6,21,0.06
2013-12-20,50,42,33,46,39,32,96,91,82,30.16,29.85,33,11,33,0.02
2013-12-21,52,50,46,51,48,41,96,93,82,30.02,29.67,32,19,32,0.48
2013-12-22,48,44,38,45,40,35,92,87,71,29.90,29.69,29,12,29,0.13
2013-12-23,52,46,37,50,44,35,95,93,91,29.90,28.82,44,18,44,0.72
2013-12-24,52,45,40,50,42,37,95,88,73,28.96,28.75,51,14,51,0.53
2013-12-25,43,38,34,39,36,32,97,94,86,29.17,28.92,16,3,16,0.09
2013-12-26,43,38,34,42,37,33,98,97,91,29.49,29.16,32,5,32,0.03
2013-12-27,51,47,41,50,41,36,96,81,67,29.24,28.97,40,18,40,0.09
2013-12-28,46,38,31,39,35,30,95,88,76,29.71,29.24,15,4,15,0.00
2013-12-29,45,36,30,42,34,29,97,92,82,30.07,29.71,22,5,22,0.02
2013-12-30,49,46,36,47,43,34,95,91,83,29.98,29.62,36,14,36,0.24
2013-12-31,50,44,38,47,42,36,99,95,90,29.84,29.53,24,9,24,0.29
2014-1-1,50,46,41,49,45,40,96,94,91,29.56,29.02,34,15,34,0.39
2014-1-2,50,46,41,47,43,39,95,91,81,29.44,29.05,26,10,26,0.11